FLOCK 4BE-5 (60559 NORAD) Tracking and Keplerian Element Data

This shows tracking and keplerian element data for the satellite.

Feedback or suggestion? Click here.




ElementValue
Catalog60559
NameFLOCK 4BE-5
Epoch Orbit865
Epoch Day286.80611405
Epoch Year2024
RAAN1.5595
Inclination97.4409
Eccentricity0.0003293
Argument of Perigee315.1068
Mean Anonmoly44.9901
Mean Motion15.20261659
Decay Rate0.00017608
L11 60559U 24149CV 24286.80611405 .00017608 00000+0 81310-3 0 9999
L22 60559 97.4409 1.5595 0003293 315.1068 44.9901 15.20261659 8659



Live tracking and technical data element details for FLOCK 4BE-5 (NORAD 60559). FLOCK 4BE-5 can be tracked NOW for your location showing map with azimuth and elevation plus other details from your city location.







IsCatalogInMostPopularTable: catalog: 60559, numindb: 6
Update: records affected: 1



GetName: 60559 FLOCK 4BE-5

Hit Count: updated at: Fri, 06 Dec 2024 11:03:40 GMT